Regional Weather Roundup
Issued by NWS

Home | Current Version | Previous Version | Graphics & Text | Print | Product List | Glossary On
Versions: 1 2 3 4 5 6 7 8 9 10 11 12 13 14 15 16 17 18 19 20 21 22 23 24 25 26 27 28 29 30 31 32 33 34 35 36 37 38 39 40 41 42 43 44 45 46 47 48 49 50
000
ASUS44 KMEG 231300
RWRTN
TENNESSEE HOURLY STATE WEATHER ROUNDUP
NATIONAL WEATHER SERVICE MEMPHIS TN
800 AM CDT SUN APR 23 2017

TNZ002-004-019-021-049-052-054-088>092-231400-
WEST TENNESSEE

CITY           SKY/WX    TMP DP  RH WIND       PRES   REMARKS
MEMPHIS INTL   DRIZZLE   50  49  96 N7        29.94R FOG
NWS MEMPHIS      N/A     49 N/A N/A MISG        N/A
JACKSON        CLOUDY    50  48  93 N9        29.91R
DYERSBURG      CLOUDY    51  45  79 N12       29.95R
PARIS          CLOUDY    46  41  81 N13       29.91R
$$

TNZ008-025-027-028-033-062-065-066-231400-
NORTH MIDDLE TENNESSEE

CITY           SKY/WX    TMP DP  RH WIND       PRES   REMARKS
NASHVILLE      DRIZZLE   51  50  96 N8        29.85S FOG
CLARKSVILLE    CLOUDY    49  44  83 NE12      29.89R
SMYRNA         LGT RAIN  51  50  96 N9        29.85S FOG
CROSSVILLE     HVY RAIN  49  47  93 NE9       29.83S FOG
$$

TNZ061-075-076-078-094-096-097-231400-
SOUTH MIDDLE TENNESSEE

CITY           SKY/WX    TMP DP  RH WIND       PRES   REMARKS
TULLAHOMA      CLOUDY    52  52 100 NW10      29.80S
WINCHESTER     CLOUDY    54  54 100 W6        29.80R
COLUMBIA       CLOUDY   N/A N/A N/A N6        29.82S
SHELBYVILLE    CLOUDY    52  52 100 N7        29.82F VSB 1
$$

TNZ017-018-042-046-047-231400-
NORTHEAST TENNESSEE

CITY           SKY/WX    TMP DP  RH WIND       PRES   REMARKS
TRI CITIES     RAIN      54  53  97 NE5       29.90S FOG
$$

TNZ012-013-036-069-073-074-231400-
CENTRAL EAST TENNESSEE

CITY           SKY/WX    TMP DP  RH WIND       PRES   REMARKS
KNOXVILLE      LGT RAIN  58  56  93 NE10      29.81S FOG
OAK RIDGE      LGT RAIN  55  53  93 E5        29.84S
GATLINBURG     CLOUDY    55  55 100 CALM      29.82F
$$

TNZ083-085-099-231400-
SOUTHEAST TENNESSEE

CITY           SKY/WX    TMP DP  RH WIND       PRES   REMARKS
CHATTANOOGA    LGT RAIN  63  61  93 S9        29.77S FOG
$$

SKY/WX REPORTED AS FAIR MEANS FEW OR NO CLOUDS BELOW
12 THOUSAND FEET.




USA.gov is the U.S. government's official web portal to all federal, state and local government web resources and services.